Hourly Data Report for June 11, 2020

BORDEN AWOS
ONTARIO
Current Station Operator: DND

44°16'20.000" N
79°54'42.000" W
222.50 m
611B002
71534
YBN

Download Data

Hourly Data (June 2020)
Hourly Data Report for June 11, 2020
TIME
LST
Temp Definition
°C
Dew Point Definition
°C
Rel Hum Definition
%
Precip. Amount Definition
mm

Wind Dir Definition
10's deg

Wind Spd Definition
km/h
Visibility Definition
km
Stn Press Definition
kPa
Hmdx Definition


Wind Chill Definition


Weather Definition


00:00 19.0 17.9 93   16 24 14.5 97.55     LegendNANA
01:00
02:00 19.0 18.2 95   17 17 14.5 97.55     LegendNANA
03:00 18.4 15.7 84   21 17 14.5 97.60     LegendNANA
04:00 18.5 14.7 79   22 22 14.5 97.63     LegendNANA
05:00 16.5 12.3 76   26 35 14.5 97.84     LegendNANA
06:00 14.6 11.0 79   26 30 14.5 98.04     LegendNANA
07:00 14.1 9.7 75   26 30 14.5 98.23     Drizzle
08:00 14.6 9.2 70   29 22 14.5 98.39     LegendNANA
09:00 16.3 10.3 68   25 15 14.5 98.48     LegendNANA
10:00 17.7 9.2 58   27 24 14.5 98.58     LegendNANA
11:00 19.3 9.9 55   27 22 14.5 98.66     LegendNANA
12:00 19.8 9.9 53   28 24 14.5 98.72     LegendNANA
13:00 21.5 11.1 52   28 24 14.5 98.75     LegendNANA
14:00 21.0 10.3 50   26 30 14.5 98.79     LegendNANA
15:00 21.9 10.6 49   26 33 14.5 98.81     LegendNANA
16:00 21.8 10.5 49   26 22 14.5 98.84     LegendNANA
17:00 21.5 10.0 48   25 24 14.5 98.88     LegendNANA
18:00 21.7 9.9 47   26 22 14.5 98.88     LegendNANA
19:00 20.8 10.1 50   23 15 14.5 98.89     LegendNANA
20:00 17.5 10.4 63   20 9 14.5 98.92     LegendNANA
21:00 17.3 11.6 69   22 22 14.5 98.98     LegendNANA
22:00 15.2 12.1 82   28 6 14.5 98.99     Rain
23:00 14.6 12.4 87   26 7 14.5 99.04     LegendNANA

Notes on Data Quality.

Legend

  • E = Estimated
  • M = Missing
  • NA = Not Available*
  • [empty] = Indicates an unobserved value
Date modified: